This demonstration page uses our WeatherBlox Daily Observations layout. Learn more.

39.92423, -83.80882

Hourly Observations for August 8, 2017

Temp ( °F °C ) Dew Point ( °F °C ) Humidity (%) Winds ( mph kmh ) Pressure ( in mb ) Visibility ( mi km ) Precip ( " mm )
12:56 am 00:56 Clear 63 17.2 59 15 87 87 NNW 6 9 30.06 1018 10 16.0934 0 0
1:56 am 01:56 Clear 62 16.7 58 14.4 86 86 NNW 3 6 30.06 1018 10 16.0934 0 0
2:56 am 02:56 Clear 60 15.6 58 14.4 93 93 NNW 6 9 30.06 1018 10 16.0934 0 0
3:56 am 03:56 Clear 60 15.6 57 13.9 90 90 N 6 9 30.07 1018 10 16.0934 0 0
4:56 am 04:56 Clear 59 15 57 13.9 93 93 NNW 3 6 30.08 1019 10 16.0934 0 0
5:56 am 05:56 Clear 60 15.6 57 13.9 90 90 NNE 8 13 30.09 1019 10 16.0934 0 0
6:56 am 06:56 Sunny 57 13.9 56 13.3 96 96 undefined N/A 30.11 1020 10 16.0934 0 0
7:56 am 07:56 Sunny 60 15.6 58 14.4 93 93 N 3 6 30.14 1021 10 16.0934 0 0
8:56 am 08:56 Sunny 66 18.9 61 16.1 84 84 NE 8 13 30.15 1021 10 16.0934 0 0
9:16 am 09:16 Mostly Sunny 66 19 61 16 83 83 NE 9 15 30.12 1020 10 16.0934 0 0
9:56 am 09:56 Mostly Cloudy 68 20 58 14.4 70 70 E 9 15 30.17 1022 10 16.0934 0 0
10:56 am 10:56 Mostly Cloudy 71 21.7 54 12.2 55 55 ENE 10 17 30.17 1022 10 16.0934 0 0
11:56 am 11:56 Sunny 73 22.8 53 11.7 50 50 E 12 19 30.18 1022 10 16.0934 0 0
12:56 pm 12:56 Sunny 73 22.8 53 11.7 50 50 NNE 10 17 30.17 1022 10 16.0934 0 0
1:56 pm 13:56 Partly Cloudy 75 23.9 54 12.2 48 48 VRB 5 7 30.16 1022 10 16.0934 0 0
2:56 pm 14:56 Sunny 76 24.4 52 11.1 43 43 undefined N/A 30.16 1021 10 16.0934 0 0
3:56 pm 15:56 Sunny 77 25 52 11.1 42 42 NNE 7 11 30.15 1021 10 16.0934 0 0
4:56 pm 16:56 Sunny 77 25 51 10.6 40 40 N 7 11 30.14 1021 10 16.0934 0 0
5:56 pm 17:56 Sunny 77 25 51 10.6 40 40 NNW 5 7 30.14 1021 10 16.0934 0 0
6:56 pm 18:56 Sunny 76 24.4 52 11.1 43 43 N 6 9 30.14 1021 10 16.0934 0 0
7:56 pm 19:56 Sunny 73 22.8 55 12.8 53 53 Calm 30.15 1021 10 16.0934 0 0
8:56 pm 20:56 Clear 65 18.3 57 13.9 76 76 SSE 3 6 30.16 1021 10 16.0934 0 0
9:56 pm 21:56 Clear 61 16.1 57 13.9 87 87 Calm 30.18 1022 10 16.0934 0 0
10:56 pm 22:56 Clear 60 15.6 56 13.3 86 86 Calm 30.18 1022 10 16.0934 0 0
11:56 pm 23:56 Clear 58 14.4 55 12.8 90 90 Calm 30.19 1022 10 16.0934 0 0

Powered by AerisWeather